KZ-11 R/B, 69628

Orbit data source: Space-Track

KZ-11 R/B, 69628 is space debris in LEO originally from a launch on Wed, 17 Jun 2026 UTC launched from the Jiuquan Satellite Launch Center, China (JSC). Debris objects in space refer to the collection of defunct objects orbiting the Earth. Examples of debris include non-operational satellites, rocket bodies, and fragments generated from explosions, collisions, or faulty payload assembly.

Loading next visibility...
Identifier
69628, 2026-138H
Orbit
LEO
Country
Flag of CNCN / PRC
Related business
Flag of CNHangtian kegong huojian jishu youxiangongsi (CN)
Manufacturer
CASIC
Mission
Spacecraft
Bus & Motor
Unknown
Mass
~1,000 kg wet, ~1,000 kg dry
Launch date (UTC)
2026-06-17 (2 days ago)
Launch vehicle
Unknown
Launch site
Jiuquan Satellite Launch Center, China (JSC)
Object type
Payload
Rocket body
Debris
Shape & HBR
Unknown
Radar Cross Section
RCS unknown

Expand to show TLE details & history
Last TLE update: 6 hours ago

TLE from 6 hours ago
0 KZ-11 R/B
1 69628U 26138H   26170.52792948  .00559223  92639-5  75428-3 0  9992
2 69628  55.1542 271.0257 0500515  87.2017 278.6156 15.11627507   325
Epoch: 2026-06-19T12:40Z
TLE epoch observation values (Epoch: 2026-06-19T12:40:13.107Z)
Latitude
0.00001°
Longitude
173.21548°
Altitude
497.619 km
Speed
7.636 km/s
True Right ascension
18h 04m 06s
True Declination
0° 00' 00"
Sunlit
Object was in full shadow at epoch
Visualization orbit readout
Latitude
Unknown
Longitude
Unknown
Altitude
Unknown
Speed
Unknown
Apparent Right ascension
Unknown
Apparent Declination
Unknown
Sunlit
N/A
Visualization observer readout
Local Sidereal Time
05:57:34
Azimuth
Unknown
Elevation
Unknown
Doppler factor
Unknown
Orbital elements
Apogee altitude
876.996 km
Perigee altitude
185.353 km
Semi-major axis
6,909.311 km
Eccentricity
0.05005
Inclination
55.1542°
RAAN
271.0257°
Arg. of periapsis
87.2017°
True anomaly
272.90071°
Mean anomaly
278.6156°
Eccentric anomaly
275.76235°
Mean motion
3.77912 °/min
Orbital period
95.26 mins
BSTAR
0.00075428
Loading maneuver chart data...
Computing Atmospheric mass density...
Loading historical data...
Loading historical data...
Loading historical data...
Loading historical data...
Loading historical data...
Loading historical data...
Loading historical data...

Documentation

Showing up to 5 results
|